Location: Newark
(53.4333°N, 36.0000°E)
Time: 01:38:39
(UTC+00:00)

ISS - Pass Details

Date: 02 October 2019
Orbit: 411 x 421 km, 51.6° (Epoch: 13 October)

Event Time Altitude Azimuth Distance (km) Brightness Sun altitude
Rises 16:11:48 0° 273° (W) 2,347 2.4 -9.8°
Reaches altitude 10° 16:13:55 10° 269° (W) 1,483 0.6 -10.1°
Maximum altitude 16:17:11 56° 191° (S) 496 -3.4 -10.6°
Enters shadow 16:19:35 17° 116° (ESE) 1,145 -2.1 -11.0°
